Other Public Products
Issued by NWS Grand Forks, ND

Home | Current Version | Previous Version | Text Only | Print | Product List | Glossary On
Versions: 1 2 3 4 5 6 7 8 9 10 11 12 13 14 15 16 17 18 19 20 21 22 23 24 25 26 27 28 29 30 31 32 33 34 35 36 37 38 39 40 41 42 43 44 45 46 47 48 49 50
000
FPUS83 KFGF 011210
OPUFGF
PRAIRIE TO PINES WEATHER ROUNDUP
NATIONAL WEATHER SERVICE EASTERN NORTH DAKOTA/GRAND FORKS ND
700 AM CDT FRI AUG 01 2014

 **SATELLITE DATA USED TO AUGMENT SKY COVER AT AUTOMATED STATIONS**
 *****  WEATHER ACROSS EASTERN NORTH DAKOTA  *****

CITY           SKY/WX    TMP DP  RH WIND       PRES   REMARKS
GRAND FORKS    CLEAR     58  57  97 NW3       30.05R FOG
6HR MIN TEMP:  58; 6HR MAX TEMP:  63;

GRAND FORKS AF CLEAR     58  58 100 NW3       30.06R
GRAND CITY NWS   N/A     55 N/A N/A NW3         N/A
BUXTON         NOT AVBL
DEVILS LAKE    CLEAR     61  54  77 CALM      30.06S
6HR MIN TEMP:  57; 6HR MAX TEMP:  66;

FARGO          CLEAR     60  57  89 CALM      30.05R
6HR MIN TEMP:  59; 6HR MAX TEMP:  68;

WAHPETON ARPT  SUNNY     57  54  88 CALM      30.06R
$$

 *****  WEATHER ACROSS CENTRAL AND WESTERN NORTH DAKOTA  *****

CITY           SKY/WX    TMP DP  RH WIND       PRES   REMARKS
JAMESTOWN      CLEAR     61  56  83 CALM      30.07S
6HR MIN TEMP:  59; 6HR MAX TEMP:  64;

BISMARCK       CLEAR     58  55  90 NE8       30.07S
6HR MIN TEMP:  58; 6HR MAX TEMP:  65;

MINOT          CLEAR     57  54  89 SW5       30.06S
6HR MIN TEMP:  55; 6HR MAX TEMP:  64;

MINOT AFB      CLEAR     54  54  99 CALM      30.06S
6HR MIN TEMP:  54; 6HR MAX TEMP:  59;

GARRISON         N/A     61  57  87 E6        30.05F
6HR MIN TEMP:  56; 6HR MAX TEMP:  62;

WILLISTON      PTCLDY    66  56  70 NE3       30.05R
6HR MIN TEMP:  64; 6HR MAX TEMP:  68;

DICKINSON      CLEAR     58  54  86 S10       30.03S
6HR MIN TEMP:  56; 6HR MAX TEMP:  63;

HETTINGER      CLEAR     52  50  93 CALM      30.07S
6HR MIN TEMP:  50; 6HR MAX TEMP:  66;

$$

 *****  OTHER OBSERVATIONS NORTHEAST NORTH DAKOTA  *****

CITY           SKY/WX    TMP DP  RH WIND       PRES   REMARKS
WALHALLA         N/A     57  57 100 CALM        N/A
LANGDON        FAIR      50  48  93 CALM      30.09R FOG
CAVALIER       FAIR      59  55  88 CALM      30.06R
GRAFTON        FAIR      59  57  94 NW3       30.05S FOG
CANDO          FAIR      55  55 100 CALM      30.09S FOG
FORT TOTTEN    NOT AVBL
ROLLA          FAIR      52  52 100 W5        30.11R
RUGBY          FAIR      59  59 100 E8        30.07S FOG
 ***** THE ABOVE OBSERVATIONS ARE NON NWS ARE NOT QUALITY
        CONTROLLED AND MAY MIS-REPORT RAIN FOR SNOW...
$$

 *****  OTHER OBSERVATIONS SOUTHEAST NORTH DAKOTA *****

CITY           SKY/WX    TMP DP  RH WIND       PRES   REMARKS
COOPERSTOWN    NOT AVBL
VALLEY CITY    PTSUNNY   57  57 100 CALM      30.08R
OAKES          NOT AVBL
GWINNER        SUNNY     61  61 100 W8        30.08S
SHEYENNE NWR     N/A     57  56  98 W2        29.95S
BUFFALO        NOT AVBL
WYNDMERE       NOT AVBL
 ***** THE ABOVE OBSERVATIONS ARE NON NWS ARE NOT QUALITY
       CONTROLLED AND MAY MIS-REPORT RAIN FOR SNOW...
$$

  *****  WEATHER ACROSS NORTHERN MINNESOTA  *****

CITY           SKY/WX    TMP DP  RH WIND       PRES   REMARKS
FLAG ISLAND    CLEAR     64  61  88 CALM      30.03R
WARROAD        CLEAR     55  52  88 CALM      30.05R
ROSEAU         CLEAR     54  48  82 CALM      30.05S
HALLOCK        CLEAR     57  55  94 CALM      30.05S FOG
THF RVR FALLS  CLEAR     57  55  94 CALM      30.06S
6HR MIN TEMP:  55; 6HR MAX TEMP:  64;

HALSTAD          N/A     57  55  95 N2          N/A
FOSSTON          N/A     54  52  94 S3        30.07R FOG
BAUDETTE       CLEAR     54  52  93 SW3       30.05R
6HR MIN TEMP:  53; 6HR MAX TEMP:  60;

WASKISH        CLEAR     55  54  94 CALM      30.05R FOG
CROOKSTON      PTCLDY    59  57  94 CALM      30.06R FOG
$$
  *****  WEATHER ACROSS CENTRAL AND WEST MINNESOTA  *****

CITY           SKY/WX    TMP DP  RH WIND       PRES   REMARKS
BEMIDJI        CLEAR     55  55  97 W3        30.06R
PARK RAPIDS    PTCLDY    60  57  89 N3        30.06R
6HR MIN TEMP:  56; 6HR MAX TEMP:  60;

WADENA         PTCLDY    61  59  94 CALM      30.06S FOG
DETROIT LAKES  PTCLDY    63  61  94 CALM      30.07S FOG
MOORHEAD       CLEAR     59  59 100 CALM      30.06R
FERGUS FALLS   CLEAR     61  57  88 CALM      30.06S
ELBOW LAKE     FAIR      61  58  92 CALM      30.07R
6HR MIN TEMP:  59; 6HR MAX TEMP:  65;

MORRIS MN      CLEAR     57  57 100 NW3       30.07R FOG
STAPLES        NOT AVBL
WHEATON        PTCLDY    57  55  94 CALM      30.09R
$$
  *****  WEATHER ELSEWHERE ACROSS MINNESOTA  *****

CITY           SKY/WX    TMP DP  RH WIND       PRES   REMARKS
DULUTH         MOSUNNY   58  55  90 CALM      30.06R
6HR MIN TEMP:  54; 6HR MAX TEMP:  60;

INTRNTL FALLS  SUNNY     50  49  96 SE3       30.04R
6HR MIN TEMP:  45; 6HR MAX TEMP:  51;

ELY            MOSUNNY   46  46 100 CALM      30.07R FOG
CLOQUET        SUNNY     54  52  94 NW3       30.06R
BRAINERD       MOCLDY    56  55  97 CALM      30.06R FOG
6HR MIN TEMP:  52; 6HR MAX TEMP:  58;

HIBBING        SUNNY     49  47  93 CALM      30.06S FOG
6HR MIN TEMP:  46; 6HR MAX TEMP:  53;

ALEXANDRIA     PTCLDY    62  60  93 CALM      30.08R
6HR MIN TEMP:  61; 6HR MAX TEMP:  64;

SAINT CLOUD    CLEAR     59  55  88 CALM      30.05S FOG
6HR MIN TEMP:  58; 6HR MAX TEMP:  64;

MINNEAPOLIS    CLEAR     65  60  84 CALM      30.05R
6HR MIN TEMP:  65; 6HR MAX TEMP:  71;

$$

  *****  WEATHER ACROSS SOUTH DAKOTA  *****

CITY           SKY/WX    TMP DP  RH WIND       PRES   REMARKS
SIOUX FALLS    PTCLDY    54  54 100 CALM      30.10R
6HR MIN TEMP:  53; 6HR MAX TEMP:  61;

BROOKINGS      NOT AVBL
WATERTOWN      CLEAR     54  52  93 CALM      30.10R
6HR MIN TEMP:  53; 6HR MAX TEMP:  61;

HURON          CLEAR     55  53  93 E3        30.07S FOG
6HR MIN TEMP:  53; 6HR MAX TEMP:  61;

SISSETON         N/A     59  58  96 CALM      30.06R
ABERDEEN       CLEAR     52  50  93 CALM      30.08S
6HR MIN TEMP:  49; 6HR MAX TEMP:  57;

MITCHELL       CLEAR     57  56  96 E3        30.09R
PIERRE         CLEAR     60  58  92 SE5       30.05R
6HR MIN TEMP:  59; 6HR MAX TEMP:  68;

MOBRIDGE       PTCLDY    61  55  81 E8        30.04S
RAPID CITY     CLEAR     62  47  57 W6        30.10S
6HR MIN TEMP:  54; 6HR MAX TEMP:  65;

$$

  *****  SOME WEATHER IN NEARBY STATES *****

CITY           SKY/WX    TMP DP  RH WIND       PRES   REMARKS
GLASGOW MT     PTCLDY    64  56  75 CALM      30.03R
6HR MIN TEMP:  63; 6HR MAX TEMP:  76;

GREAT FALLS MT CLEAR     54  43  66 W7        30.15R
6HR MIN TEMP:  52; 6HR MAX TEMP:  68;

CHEYENNE WY    CLEAR     51  44  77 W10       30.30R
6HR MIN TEMP:  50; 6HR MAX TEMP:  59;

SCOTTSBLUFF NE CLEAR     52  49  89 NW5       30.19R
6HR MIN TEMP:  51; 6HR MAX TEMP:  63;

OMAHA NE       MOCLDY    66  60  81 SE3       30.06R
6HR MIN TEMP:  65; 6HR MAX TEMP:  73; 6HR PCP:  0.01;

DES MOINES IA  PTCLDY    65  60  84 CALM      30.08R
6HR MIN TEMP:  63; 6HR MAX TEMP:  68;

DAVENPORT IA   PTSUNNY   65  59  81 CALM      30.08F
6HR MIN TEMP:  63; 6HR MAX TEMP:  68;

CHICAGO IL     MOSUNNY   66  59  78 SW5       30.08R
6HR MIN TEMP:  62; 6HR MAX TEMP:  68;

EAU CLAIRE WI  SUNNY     63  61  93 SW3       30.04R
6HR MIN TEMP:  61; 6HR MAX TEMP:  66;

LA CROSSE WI   MOSUNNY   64  61  90 S8        30.06R
6HR MIN TEMP:  63; 6HR MAX TEMP:  67;

$$

  *****  SOME NATIONAL WEATHER *****

CITY           SKY/WX    TMP DP  RH WIND       PRES   REMARKS



USA.gov is the U.S. government's official web portal to all federal, state and local government web resources and services.